Time,TemperatureF,DewpointF,PressureIn,WindDirection,WindDirectionDegrees,WindSpeedMPH,WindSpeedGustMPH,Humidity,HourlyPrecipIn,Conditions,Clouds,dailyrainin,SoftwareType,DateUTC
2013-07-16 00:01:00,69.8,67.3,-100.00,SE,139,0.0,0.0,92,0.00,,,0.00,meteohub,2013-07-16 04:01:00,
2013-07-16 00:06:00,70.0,67.5,-100.00,SE,139,0.0,0.0,92,0.00,,,0.00,meteohub,2013-07-16 04:06:00,
2013-07-16 00:11:00,69.8,67.3,-100.00,SE,139,0.0,0.0,92,0.00,,,0.00,meteohub,2013-07-16 04:11:00,
2013-07-16 00:16:00,69.6,67.3,-100.00,SE,139,0.0,0.0,92,0.00,,,0.00,meteohub,2013-07-16 04:16:00,
2013-07-16 00:21:00,69.4,66.7,-100.00,SE,139,0.0,0.0,91,0.00,,,0.00,meteohub,2013-07-16 04:21:00,
2013-07-16 00:26:00,69.3,66.9,-100.00,SE,139,0.0,0.0,92,0.00,,,0.00,meteohub,2013-07-16 04:26:00,
2013-07-16 00:32:00,69.3,66.9,-100.00,SE,139,0.0,0.0,92,0.00,,,0.00,meteohub,2013-07-16 04:32:00,
2013-07-16 00:37:00,69.3,66.9,-100.00,SE,139,0.0,0.0,92,0.00,,,0.00,meteohub,2013-07-16 04:37:00,
2013-07-16 00:42:00,69.1,66.9,-100.00,SE,139,0.0,0.0,93,0.00,,,0.00,meteohub,2013-07-16 04:42:00,
2013-07-16 00:47:00,69.1,66.9,-100.00,SE,139,0.0,0.0,93,0.00,,,0.00,meteohub,2013-07-16 04:47:00,
2013-07-16 00:52:00,69.1,66.9,-100.00,SE,139,0.0,0.0,93,0.00,,,0.00,meteohub,2013-07-16 04:52:00,
2013-07-16 00:57:00,69.1,66.9,-100.00,SE,139,0.0,0.0,93,0.00,,,0.00,meteohub,2013-07-16 04:57:00,
2013-07-16 01:02:00,69.1,66.9,-100.00,SE,139,0.0,0.0,93,0.00,,,0.00,meteohub,2013-07-16 05:02:00,
2013-07-16 01:07:00,69.3,67.5,-100.00,SE,139,0.0,0.0,94,0.00,,,0.00,meteohub,2013-07-16 05:07:00,
2013-07-16 01:12:00,69.3,67.5,-100.00,SE,139,0.0,0.0,94,0.00,,,0.00,meteohub,2013-07-16 05:12:00,
2013-07-16 01:17:00,69.3,67.5,-100.00,SE,139,0.0,0.0,94,0.00,,,0.00,meteohub,2013-07-16 05:17:00,
2013-07-16 01:22:00,69.3,67.5,-100.00,SE,139,0.0,1.0,94,0.00,,,0.00,meteohub,2013-07-16 05:22:00,
2013-07-16 01:27:00,69.4,67.6,-100.00,SE,139,0.0,1.0,94,0.00,,,0.00,meteohub,2013-07-16 05:27:00,
2013-07-16 01:32:00,69.6,68.2,-100.00,SE,139,0.0,1.0,95,0.00,,,0.00,meteohub,2013-07-16 05:32:00,
2013-07-16 01:37:00,70.0,68.5,-100.00,SE,139,0.0,0.0,95,0.00,,,0.00,meteohub,2013-07-16 05:37:00,
2013-07-16 01:42:00,70.0,68.5,-100.00,SE,139,0.0,0.0,95,0.00,,,0.00,meteohub,2013-07-16 05:42:00,
2013-07-16 01:47:00,70.0,68.5,-100.00,SE,139,0.0,0.0,95,0.00,,,0.00,meteohub,2013-07-16 05:47:00,
2013-07-16 01:52:00,70.0,68.5,-100.00,SE,139,0.0,0.0,95,0.00,,,0.00,meteohub,2013-07-16 05:52:00,
2013-07-16 01:57:00,70.0,68.5,-100.00,SE,139,0.0,0.0,95,0.00,,,0.00,meteohub,2013-07-16 05:57:00,
2013-07-16 02:02:00,70.0,68.5,-100.00,SE,139,0.0,0.0,95,0.00,,,0.00,meteohub,2013-07-16 06:02:00,
2013-07-16 02:07:00,70.2,68.7,-100.00,SE,139,0.0,0.0,95,0.00,,,0.00,meteohub,2013-07-16 06:07:00,
2013-07-16 02:12:00,70.3,68.9,-100.00,SE,139,0.0,0.0,95,0.00,,,0.00,meteohub,2013-07-16 06:12:00,
2013-07-16 02:17:00,70.7,69.3,-100.00,SE,139,0.0,0.0,95,0.00,,,0.00,meteohub,2013-07-16 06:17:00,
2013-07-16 02:22:00,70.7,68.9,-100.00,SE,139,0.0,0.0,94,0.00,,,0.00,meteohub,2013-07-16 06:22:00,
2013-07-16 02:27:00,70.5,68.7,-100.00,SE,139,0.0,0.0,94,0.00,,,0.00,meteohub,2013-07-16 06:27:00,
2013-07-16 02:32:00,70.5,68.7,-100.00,SE,139,0.0,0.0,94,0.00,,,0.00,meteohub,2013-07-16 06:32:00,
2013-07-16 02:38:00,70.3,68.5,-100.00,SE,139,0.0,0.0,94,0.00,,,0.00,meteohub,2013-07-16 06:38:00,
2013-07-16 02:43:00,70.3,68.5,-100.00,SE,139,0.0,0.0,94,0.00,,,0.00,meteohub,2013-07-16 06:43:00,
2013-07-16 02:48:00,70.3,68.9,-100.00,SE,139,0.0,0.0,95,0.00,,,0.00,meteohub,2013-07-16 06:48:00,
2013-07-16 02:53:00,70.5,69.1,-100.00,SE,139,0.0,0.0,95,0.00,,,0.00,meteohub,2013-07-16 06:53:00,
2013-07-16 02:58:00,70.5,69.1,-100.00,SE,139,0.0,0.0,95,0.00,,,0.00,meteohub,2013-07-16 06:58:00,
2013-07-16 03:03:00,70.3,68.9,-100.00,SE,139,0.0,0.0,95,0.00,,,0.00,meteohub,2013-07-16 07:03:00,
2013-07-16 03:08:00,70.5,69.1,-100.00,SE,139,0.0,0.0,95,0.00,,,0.00,meteohub,2013-07-16 07:08:00,
2013-07-16 03:13:00,70.5,69.1,-100.00,SE,139,0.0,0.0,95,0.00,,,0.00,meteohub,2013-07-16 07:13:00,
2013-07-16 03:18:00,70.5,69.1,-100.00,SE,139,0.0,0.0,95,0.00,,,0.00,meteohub,2013-07-16 07:18:00,
2013-07-16 03:23:00,70.5,69.1,-100.00,SE,139,0.0,0.0,95,0.00,,,0.00,meteohub,2013-07-16 07:23:00,
2013-07-16 03:28:00,70.5,69.1,-100.00,SE,139,0.0,0.0,95,0.00,,,0.00,meteohub,2013-07-16 07:28:00,
2013-07-16 03:33:00,70.5,69.3,-100.00,SE,139,0.0,0.0,96,0.00,,,0.00,meteohub,2013-07-16 07:33:00,
2013-07-16 03:38:00,70.3,68.9,-100.00,SE,139,0.0,0.0,95,0.00,,,0.00,meteohub,2013-07-16 07:38:00,
2013-07-16 03:43:00,70.2,68.7,-100.00,SE,139,0.0,0.0,95,0.00,,,0.00,meteohub,2013-07-16 07:43:00,
2013-07-16 03:48:00,70.2,68.7,-100.00,SSE,148,2.0,0.0,95,0.00,,,0.00,meteohub,2013-07-16 07:48:00,
2013-07-16 03:53:00,71.1,69.8,-100.00,SE,131,0.0,1.0,96,0.00,,,0.00,meteohub,2013-07-16 07:53:00,
2013-07-16 03:58:00,71.4,70.2,-100.00,ESE,115,2.0,2.0,96,0.00,,,0.00,meteohub,2013-07-16 07:58:00,
2013-07-16 04:03:00,72.0,70.5,-100.00,SE,130,0.0,2.0,95,0.00,,,0.00,meteohub,2013-07-16 08:03:00,
2013-07-16 04:08:00,72.0,70.2,-100.00,SE,132,0.0,2.0,94,0.00,,,0.00,meteohub,2013-07-16 08:08:00,
2013-07-16 04:13:00,71.8,70.0,-100.00,SE,136,0.0,2.0,94,0.00,,,0.00,meteohub,2013-07-16 08:13:00,
2013-07-16 04:18:00,71.6,69.8,-100.00,SE,136,0.0,1.0,94,0.00,,,0.00,meteohub,2013-07-16 08:18:00,
2013-07-16 04:23:00,71.4,69.6,-100.00,SE,136,0.0,1.0,94,0.00,,,0.00,meteohub,2013-07-16 08:23:00,
2013-07-16 04:28:00,71.2,69.4,-100.00,SE,136,0.0,1.0,94,0.00,,,0.00,meteohub,2013-07-16 08:28:00,
2013-07-16 04:33:00,71.1,69.3,-100.00,SE,136,0.0,0.0,94,0.00,,,0.00,meteohub,2013-07-16 08:33:00,
2013-07-16 04:38:00,70.5,68.4,-100.00,SE,136,0.0,0.0,93,0.00,,,0.00,meteohub,2013-07-16 08:38:00,
2013-07-16 04:43:00,70.5,68.7,-100.00,SE,136,0.0,0.0,94,0.00,,,0.00,meteohub,2013-07-16 08:43:00,
2013-07-16 04:48:00,70.3,68.5,-100.00,SE,136,0.0,0.0,94,0.00,,,0.00,meteohub,2013-07-16 08:48:00,
2013-07-16 04:53:00,70.3,68.9,-100.00,SE,136,0.0,0.0,95,0.00,,,0.00,meteohub,2013-07-16 08:53:00,
2013-07-16 04:58:00,70.2,68.7,-100.00,SE,136,0.0,0.0,95,0.00,,,0.00,meteohub,2013-07-16 08:58:00,
2013-07-16 05:03:00,70.0,68.5,-100.00,SE,136,0.0,0.0,95,0.00,,,0.00,meteohub,2013-07-16 09:03:00,
2013-07-16 05:08:00,69.8,68.0,-100.00,SE,136,0.0,0.0,94,0.00,,,0.00,meteohub,2013-07-16 09:08:00,
2013-07-16 05:13:00,69.4,68.0,-100.00,SE,136,0.0,0.0,95,0.00,,,0.00,meteohub,2013-07-16 09:13:00,
2013-07-16 05:18:00,69.4,68.0,-100.00,SE,136,0.0,0.0,95,0.00,,,0.00,meteohub,2013-07-16 09:18:00,
2013-07-16 05:23:00,69.3,67.8,-100.00,SE,136,0.0,0.0,95,0.00,,,0.00,meteohub,2013-07-16 09:23:00,
2013-07-16 05:28:00,69.3,67.8,-100.00,SE,136,0.0,0.0,95,0.00,,,0.00,meteohub,2013-07-16 09:28:00,
2013-07-16 05:33:00,69.3,67.8,-100.00,SE,136,0.0,0.0,95,0.00,,,0.00,meteohub,2013-07-16 09:33:00,
2013-07-16 05:38:00,69.1,67.6,-100.00,SE,136,0.0,0.0,95,0.00,,,0.00,meteohub,2013-07-16 09:38:00,
2013-07-16 05:43:00,68.9,67.5,-100.00,SE,136,0.0,0.0,95,0.00,,,0.00,meteohub,2013-07-16 09:43:00,
2013-07-16 05:48:00,68.7,67.3,-100.00,SE,136,0.0,0.0,95,0.00,,,0.00,meteohub,2013-07-16 09:48:00,
2013-07-16 05:53:00,68.5,67.1,-100.00,SE,136,0.0,0.0,95,0.00,,,0.00,meteohub,2013-07-16 09:53:00,
2013-07-16 05:58:00,68.5,67.3,-100.00,SE,136,0.0,0.0,96,0.00,,,0.00,meteohub,2013-07-16 09:58:00,
2013-07-16 06:03:00,69.4,68.5,-100.00,SE,136,0.0,0.0,97,0.00,,,0.00,meteohub,2013-07-16 10:03:00,
2013-07-16 06:08:00,70.0,69.1,-100.00,SSE,162,0.0,1.0,97,0.00,,,0.00,meteohub,2013-07-16 10:08:00,
2013-07-16 06:13:00,70.2,69.3,-100.00,SSE,161,0.0,1.0,97,0.00,,,0.00,meteohub,2013-07-16 10:13:00,
2013-07-16 06:18:00,70.5,69.6,-100.00,SE,146,0.0,1.0,97,0.00,,,0.00,meteohub,2013-07-16 10:18:00,
2013-07-16 06:23:00,70.5,69.3,-100.00,SE,146,0.0,0.0,96,0.00,,,0.00,meteohub,2013-07-16 10:23:00,
2013-07-16 06:29:00,70.3,69.1,-100.00,SE,146,0.0,0.0,96,0.00,,,0.00,meteohub,2013-07-16 10:29:00,
2013-07-16 06:34:00,70.5,69.3,-100.00,SE,146,0.0,0.0,96,0.00,,,0.00,meteohub,2013-07-16 10:34:00,
2013-07-16 06:39:00,70.7,69.4,-100.00,SE,146,0.0,0.0,96,0.00,,,0.00,meteohub,2013-07-16 10:39:00,
2013-07-16 06:44:00,70.9,69.6,-100.00,SE,146,0.0,0.0,96,0.00,,,0.00,meteohub,2013-07-16 10:44:00,
2013-07-16 06:49:00,71.6,70.7,-100.00,SE,146,0.0,0.0,97,0.00,,,0.00,meteohub,2013-07-16 10:49:00,
2013-07-16 06:54:00,72.3,71.1,-100.00,SE,131,1.0,1.0,96,0.00,,,0.00,meteohub,2013-07-16 10:54:00,
2013-07-16 06:59:00,72.9,71.4,-100.00,SE,131,0.0,1.0,95,0.00,,,0.00,meteohub,2013-07-16 10:59:00,
2013-07-16 07:04:00,73.8,72.3,-100.00,SE,130,0.0,1.0,95,0.00,,,0.00,meteohub,2013-07-16 11:04:00,
2013-07-16 07:09:00,74.5,72.7,-100.00,SSE,159,0.0,1.0,94,0.00,,,0.00,meteohub,2013-07-16 11:09:00,
2013-07-16 07:14:00,75.2,72.7,-100.00,SSE,160,0.0,1.0,92,0.00,,,0.00,meteohub,2013-07-16 11:14:00,
2013-07-16 07:19:00,75.9,73.0,-100.00,SSE,161,0.0,1.0,91,0.00,,,0.00,meteohub,2013-07-16 11:19:00,
2013-07-16 07:24:00,76.5,73.0,-100.00,SW,226,0.0,1.0,89,0.00,,,0.00,meteohub,2013-07-16 11:24:00,
2013-07-16 07:29:00,77.0,73.6,-100.00,SSE,164,0.0,1.0,89,0.00,,,0.00,meteohub,2013-07-16 11:29:00,
2013-07-16 07:34:00,77.4,73.6,-100.00,SW,214,1.0,2.0,88,0.00,,,0.00,meteohub,2013-07-16 11:34:00,
2013-07-16 07:39:00,77.5,73.4,-100.00,SW,221,1.0,3.0,87,0.00,,,0.00,meteohub,2013-07-16 11:39:00,
2013-07-16 07:44:00,77.9,73.8,-100.00,SW,231,0.0,3.0,87,0.00,,,0.00,meteohub,2013-07-16 11:44:00,
2013-07-16 07:49:00,78.4,73.6,-100.00,WSW,248,0.0,3.0,85,0.00,,,0.00,meteohub,2013-07-16 11:49:00,
2013-07-16 07:54:00,78.6,74.1,-100.00,SW,233,2.0,2.0,86,0.00,,,0.00,meteohub,2013-07-16 11:54:00,
2013-07-16 07:59:00,78.6,73.8,-100.00,WSW,248,1.0,2.0,85,0.00,,,0.00,meteohub,2013-07-16 11:59:00,
2013-07-16 08:04:00,79.0,74.1,-100.00,SW,221,0.0,2.0,85,0.00,,,0.00,meteohub,2013-07-16 12:04:00,
2013-07-16 08:09:00,79.5,74.3,-100.00,West,274,0.0,2.0,84,0.00,,,0.00,meteohub,2013-07-16 12:09:00,
2013-07-16 08:14:00,80.1,74.8,-100.00,WSW,250,0.0,2.0,84,0.00,,,0.00,meteohub,2013-07-16 12:14:00,
2013-07-16 08:19:00,80.8,75.6,-100.00,WNW,295,1.0,1.0,84,0.00,,,0.00,meteohub,2013-07-16 12:19:00,
2013-07-16 08:24:00,80.8,75.2,-100.00,WNW,302,0.0,2.0,83,0.00,,,0.00,meteohub,2013-07-16 12:24:00,
2013-07-16 08:29:00,81.0,76.1,-100.00,WNW,302,0.0,2.0,85,0.00,,,0.00,meteohub,2013-07-16 12:29:00,
2013-07-16 08:34:00,81.9,75.7,-100.00,East,90,0.0,2.0,82,0.00,,,0.00,meteohub,2013-07-16 12:34:00,
2013-07-16 08:39:00,82.9,75.7,-100.00,East,90,0.0,2.0,79,0.00,,,0.00,meteohub,2013-07-16 12:39:00,
2013-07-16 08:44:00,83.7,75.7,-100.00,NNE,17,0.0,2.0,77,0.00,,,0.00,meteohub,2013-07-16 12:44:00,
2013-07-16 08:50:00,83.8,75.9,-100.00,East,84,0.0,2.0,77,0.00,,,0.00,meteohub,2013-07-16 12:50:00,
2013-07-16 08:55:00,83.8,75.0,-100.00,East,90,0.0,2.0,75,0.00,,,0.00,meteohub,2013-07-16 12:55:00,
2013-07-16 09:00:00,84.6,75.0,-100.00,East,98,1.0,2.0,73,0.00,,,0.00,meteohub,2013-07-16 13:00:00,
2013-07-16 09:05:00,84.4,74.8,-100.00,NNE,19,0.0,2.0,73,0.00,,,0.00,meteohub,2013-07-16 13:05:00,
2013-07-16 09:10:00,84.6,75.4,-100.00,North,354,0.0,2.0,74,0.00,,,0.00,meteohub,2013-07-16 13:10:00,
2013-07-16 09:15:00,85.3,75.6,-100.00,NNE,13,0.0,2.0,73,0.00,,,0.00,meteohub,2013-07-16 13:15:00,
2013-07-16 09:20:00,85.6,73.4,-100.00,NNE,23,0.0,3.0,67,0.00,,,0.00,meteohub,2013-07-16 13:20:00,
2013-07-16 09:25:00,85.6,73.9,-100.00,NNW,331,0.0,3.0,68,0.00,,,0.00,meteohub,2013-07-16 13:25:00,
2013-07-16 09:30:00,85.6,73.0,-100.00,NNE,12,1.0,3.0,66,0.00,,,0.00,meteohub,2013-07-16 13:30:00,
2013-07-16 09:35:00,85.6,73.4,-100.00,NE,49,1.0,2.0,67,0.00,,,0.00,meteohub,2013-07-16 13:35:00,
2013-07-16 09:40:00,86.2,72.5,-100.00,NE,38,0.0,2.0,64,0.00,,,0.00,meteohub,2013-07-16 13:40:00,
2013-07-16 09:45:00,86.2,73.0,-100.00,ESE,120,0.0,2.0,65,0.00,,,0.00,meteohub,2013-07-16 13:45:00,
2013-07-16 09:50:00,86.4,73.2,-100.00,NNE,15,0.0,2.0,65,0.00,,,0.00,meteohub,2013-07-16 13:50:00,
2013-07-16 09:55:00,86.7,72.7,-100.00,NE,35,0.0,2.0,63,0.00,,,0.00,meteohub,2013-07-16 13:55:00,
2013-07-16 10:00:00,87.3,72.1,-100.00,ESE,103,1.0,2.0,61,0.00,,,0.00,meteohub,2013-07-16 14:00:00,
2013-07-16 10:05:00,86.7,71.6,-100.00,SE,137,0.0,2.0,61,0.00,,,0.00,meteohub,2013-07-16 14:05:00,
2013-07-16 10:10:00,86.9,71.8,-100.00,NNE,24,0.0,2.0,61,0.00,,,0.00,meteohub,2013-07-16 14:10:00,
2013-07-16 10:15:00,86.7,72.7,-100.00,North,4,2.0,2.0,63,0.00,,,0.00,meteohub,2013-07-16 14:15:00,
2013-07-16 10:20:00,87.1,72.0,-100.00,NNW,345,1.0,2.0,61,0.00,,,0.00,meteohub,2013-07-16 14:20:00,
2013-07-16 10:25:00,87.1,72.9,-100.00,ESE,115,1.0,2.0,63,0.00,,,0.00,meteohub,2013-07-16 14:25:00,
2013-07-16 10:30:00,87.1,71.4,-100.00,East,82,0.0,2.0,60,0.00,,,0.00,meteohub,2013-07-16 14:30:00,
2013-07-16 10:35:00,87.1,71.4,-100.00,ENE,74,0.0,2.0,60,0.00,,,0.00,meteohub,2013-07-16 14:35:00,
2013-07-16 10:40:00,87.6,72.0,-100.00,ENE,76,2.0,2.0,60,0.00,,,0.00,meteohub,2013-07-16 14:40:00,
2013-07-16 10:45:00,88.2,73.0,-100.00,North,358,2.0,3.0,61,0.00,,,0.00,meteohub,2013-07-16 14:45:00,
2013-07-16 10:50:00,88.2,71.6,-100.00,ENE,76,1.0,3.0,58,0.00,,,0.00,meteohub,2013-07-16 14:50:00,
2013-07-16 10:55:00,88.2,71.6,-100.00,NW,323,2.0,3.0,58,0.00,,,0.00,meteohub,2013-07-16 14:55:00,
2013-07-16 11:00:00,88.3,72.7,-100.00,NNE,18,0.0,3.0,60,0.00,,,0.00,meteohub,2013-07-16 15:00:00,
2013-07-16 11:05:00,88.0,73.4,-100.00,NNE,32,2.0,3.0,62,0.00,,,0.00,meteohub,2013-07-16 15:05:00,
2013-07-16 11:10:00,87.8,74.1,-100.00,ENE,65,1.0,3.0,64,0.00,,,0.00,meteohub,2013-07-16 15:10:00,
2013-07-16 11:15:00,88.0,73.8,-100.00,ENE,68,0.0,3.0,63,0.00,,,0.00,meteohub,2013-07-16 15:15:00,
2013-07-16 11:20:00,88.0,73.8,-100.00,NE,49,0.0,3.0,63,0.00,,,0.00,meteohub,2013-07-16 15:20:00,
2013-07-16 11:25:00,87.6,73.0,-100.00,NE,35,2.0,3.0,62,0.00,,,0.00,meteohub,2013-07-16 15:25:00,
2013-07-16 11:30:00,87.4,74.3,-100.00,NNE,20,2.0,3.0,65,0.00,,,0.00,meteohub,2013-07-16 15:30:00,
2013-07-16 11:35:00,87.6,72.5,-100.00,East,98,1.0,3.0,61,0.00,,,0.00,meteohub,2013-07-16 15:35:00,
2013-07-16 11:40:00,87.8,74.1,-100.00,North,1,1.0,3.0,64,0.00,,,0.00,meteohub,2013-07-16 15:40:00,
2013-07-16 11:45:00,88.0,72.9,-100.00,ENE,73,1.0,2.0,61,0.00,,,0.00,meteohub,2013-07-16 15:45:00,
2013-07-16 11:50:00,87.4,73.8,-100.00,East,79,0.0,3.0,64,0.00,,,0.00,meteohub,2013-07-16 15:50:00,
2013-07-16 11:55:00,87.4,73.2,-100.00,NNE,25,0.0,3.0,63,0.00,,,0.00,meteohub,2013-07-16 15:55:00,
2013-07-16 12:00:00,87.6,71.6,-100.00,North,11,0.0,4.0,59,0.00,,,0.00,meteohub,2013-07-16 16:00:00,
2013-07-16 12:06:00,88.0,71.8,-100.00,East,90,1.0,4.0,59,0.00,,,0.00,meteohub,2013-07-16 16:06:00,
2013-07-16 12:11:00,88.2,71.1,-100.00,ENE,59,2.0,4.0,57,0.00,,,0.00,meteohub,2013-07-16 16:11:00,
2013-07-16 12:16:00,88.0,70.9,-100.00,ENE,66,1.0,3.0,57,0.00,,,0.00,meteohub,2013-07-16 16:16:00,
2013-07-16 12:21:00,88.0,70.9,-100.00,NNE,18,1.0,3.0,57,0.00,,,0.00,meteohub,2013-07-16 16:21:00,
2013-07-16 12:26:00,88.3,70.7,-100.00,NE,42,0.0,3.0,56,0.00,,,0.00,meteohub,2013-07-16 16:26:00,
2013-07-16 12:31:00,88.5,69.8,-100.00,NNE,26,0.0,3.0,54,0.00,,,0.00,meteohub,2013-07-16 16:31:00,
2013-07-16 12:36:00,88.5,71.4,-100.00,NE,52,3.0,3.0,57,0.00,,,0.00,meteohub,2013-07-16 16:36:00,
2013-07-16 12:41:00,88.2,71.1,-100.00,ENE,61,0.0,4.0,57,0.00,,,0.00,meteohub,2013-07-16 16:41:00,
2013-07-16 12:46:00,88.2,70.0,-100.00,NE,35,3.0,4.0,55,0.00,,,0.00,meteohub,2013-07-16 16:46:00,
2013-07-16 12:51:00,88.0,70.9,-100.00,NNW,329,1.0,4.0,57,0.00,,,0.00,meteohub,2013-07-16 16:51:00,
2013-07-16 12:56:00,87.1,72.5,-100.00,NE,46,2.0,4.0,62,0.00,,,0.00,meteohub,2013-07-16 16:56:00,
2013-07-16 13:01:00,86.4,69.8,-100.00,NNE,16,1.0,4.0,58,0.00,,,0.00,meteohub,2013-07-16 17:01:00,
2013-07-16 13:06:00,86.5,69.4,-100.00,ENE,62,2.0,5.0,57,0.00,,,0.00,meteohub,2013-07-16 17:06:00,
2013-07-16 13:11:00,87.1,72.0,-100.00,NNE,15,0.0,5.0,61,0.00,,,0.00,meteohub,2013-07-16 17:11:00,
2013-07-16 13:16:00,87.6,71.6,-100.00,East,94,0.0,5.0,59,0.00,,,0.00,meteohub,2013-07-16 17:16:00,
2013-07-16 13:21:00,88.0,71.8,-100.00,ENE,68,2.0,5.0,59,0.00,,,0.00,meteohub,2013-07-16 17:21:00,
2013-07-16 13:26:00,88.0,71.8,-100.00,ESE,104,0.0,5.0,59,0.00,,,0.00,meteohub,2013-07-16 17:26:00,
2013-07-16 13:31:00,88.2,72.0,-100.00,ENE,63,2.0,5.0,59,0.00,,,0.00,meteohub,2013-07-16 17:31:00,
2013-07-16 13:36:00,88.2,71.6,-100.00,NE,44,3.0,5.0,58,0.00,,,0.00,meteohub,2013-07-16 17:36:00,
2013-07-16 13:41:00,87.6,70.0,-100.00,ENE,75,1.0,5.0,56,0.00,,,0.00,meteohub,2013-07-16 17:41:00,
2013-07-16 13:46:00,87.6,70.0,-100.00,ENE,58,2.0,7.0,56,0.00,,,0.00,meteohub,2013-07-16 17:46:00,
2013-07-16 13:51:00,87.4,70.3,-100.00,NE,44,1.0,7.0,57,0.00,,,0.00,meteohub,2013-07-16 17:51:00,
2013-07-16 13:56:00,87.3,70.2,-100.00,NNW,346,0.0,7.0,57,0.00,,,0.00,meteohub,2013-07-16 17:56:00,
2013-07-16 14:01:00,87.4,70.9,-100.00,ENE,62,3.0,7.0,58,0.00,,,0.00,meteohub,2013-07-16 18:01:00,
2013-07-16 14:06:00,87.4,71.8,-100.00,NNE,27,0.0,6.0,60,0.00,,,0.00,meteohub,2013-07-16 18:06:00,
2013-07-16 14:11:00,88.2,72.0,-100.00,NE,42,0.0,6.0,59,0.00,,,0.00,meteohub,2013-07-16 18:11:00,
2013-07-16 14:16:00,88.5,71.8,-100.00,NE,34,0.0,6.0,58,0.00,,,0.00,meteohub,2013-07-16 18:16:00,
2013-07-16 14:21:00,88.9,70.7,-100.00,NNE,17,2.0,4.0,55,0.00,,,0.00,meteohub,2013-07-16 18:21:00,
2013-07-16 14:26:00,88.9,70.2,-100.00,ESE,112,1.0,4.0,54,0.00,,,0.00,meteohub,2013-07-16 18:26:00,
2013-07-16 14:31:00,89.2,70.3,-100.00,NW,323,1.0,4.0,54,0.00,,,0.00,meteohub,2013-07-16 18:31:00,
2013-07-16 14:36:00,89.2,70.9,-100.00,NW,305,2.0,4.0,55,0.00,,,0.00,meteohub,2013-07-16 18:36:00,
2013-07-16 14:41:00,89.2,70.9,-100.00,NNW,337,0.0,4.0,55,0.00,,,0.00,meteohub,2013-07-16 18:41:00,
2013-07-16 14:47:00,89.8,69.8,-100.00,NE,52,0.0,3.0,52,0.00,,,0.00,meteohub,2013-07-16 18:47:00,
2013-07-16 14:52:00,89.8,70.3,-100.00,ENE,78,1.0,3.0,53,0.00,,,0.00,meteohub,2013-07-16 18:52:00,
2013-07-16 14:57:00,90.0,71.6,-100.00,North,11,1.0,4.0,55,0.00,,,0.00,meteohub,2013-07-16 18:57:00,
2013-07-16 15:02:00,90.3,70.3,-100.00,ENE,69,2.0,4.0,52,0.00,,,0.00,meteohub,2013-07-16 19:02:00,
2013-07-16 15:07:00,90.1,68.9,-100.00,NW,314,1.0,4.0,50,0.00,,,0.00,meteohub,2013-07-16 19:07:00,
2013-07-16 15:12:00,90.7,71.8,-100.00,NNE,24,2.0,4.0,54,0.00,,,0.00,meteohub,2013-07-16 19:12:00,
2013-07-16 15:17:00,90.7,70.7,-100.00,East,96,0.0,4.0,52,0.00,,,0.00,meteohub,2013-07-16 19:17:00,
2013-07-16 15:22:00,90.9,69.6,-100.00,NNE,20,1.0,3.0,50,0.00,,,0.00,meteohub,2013-07-16 19:22:00,
2013-07-16 15:27:00,91.0,72.1,-100.00,NE,39,1.0,3.0,54,0.00,,,0.00,meteohub,2013-07-16 19:27:00,
2013-07-16 15:32:00,91.6,70.3,-100.00,NNE,25,2.0,3.0,50,0.00,,,0.00,meteohub,2013-07-16 19:32:00,
2013-07-16 15:37:00,91.2,68.2,-100.00,ENE,72,2.0,3.0,47,0.00,,,0.00,meteohub,2013-07-16 19:37:00,
2013-07-16 15:42:00,90.9,68.5,-100.00,North,353,0.0,3.0,48,0.00,,,0.00,meteohub,2013-07-16 19:42:00,
2013-07-16 15:47:00,91.2,67.5,-100.00,WNW,284,3.0,3.0,46,0.00,,,0.00,meteohub,2013-07-16 19:47:00,
2013-07-16 15:52:00,91.2,68.2,-100.00,WNW,302,1.0,4.0,47,0.00,,,0.00,meteohub,2013-07-16 19:52:00,
2013-07-16 15:57:00,91.4,68.9,-100.00,ENE,72,1.0,4.0,48,0.00,,,0.00,meteohub,2013-07-16 19:57:00,
2013-07-16 16:02:00,91.2,70.0,-100.00,NE,38,1.0,4.0,50,0.00,,,0.00,meteohub,2013-07-16 20:02:00,
2013-07-16 16:07:00,91.4,69.6,-100.00,ESE,107,1.0,4.0,49,0.00,,,0.00,meteohub,2013-07-16 20:07:00,
2013-07-16 16:12:00,91.6,70.3,-100.00,NNE,12,1.0,4.0,50,0.00,,,0.00,meteohub,2013-07-16 20:12:00,
2013-07-16 16:17:00,91.0,69.8,-100.00,ENE,75,3.0,3.0,50,0.00,,,0.00,meteohub,2013-07-16 20:17:00,
2013-07-16 16:22:00,90.7,70.0,-100.00,NE,38,2.0,4.0,51,0.00,,,0.00,meteohub,2013-07-16 20:22:00,
2013-07-16 16:27:00,90.1,70.7,-100.00,NNW,342,1.0,4.0,53,0.00,,,0.00,meteohub,2013-07-16 20:27:00,
2013-07-16 16:32:00,90.7,69.4,-100.00,NE,51,1.0,4.0,50,0.00,,,0.00,meteohub,2013-07-16 20:32:00,
2013-07-16 16:37:00,90.7,69.4,-100.00,NNE,25,0.0,4.0,50,0.00,,,0.00,meteohub,2013-07-16 20:37:00,
2013-07-16 16:42:00,90.9,70.9,-100.00,North,4,1.0,3.0,52,0.00,,,0.00,meteohub,2013-07-16 20:42:00,
2013-07-16 16:47:00,90.9,69.1,-100.00,NNE,28,2.0,3.0,49,0.00,,,0.00,meteohub,2013-07-16 20:47:00,
2013-07-16 16:52:00,90.1,68.4,-100.00,North,350,0.0,3.0,49,0.00,,,0.00,meteohub,2013-07-16 20:52:00,
2013-07-16 16:57:00,90.3,69.1,-100.00,East,91,0.0,3.0,50,0.00,,,0.00,meteohub,2013-07-16 20:57:00,
2013-07-16 17:02:00,90.9,69.1,-100.00,NNE,30,2.0,3.0,49,0.00,,,0.00,meteohub,2013-07-16 21:02:00,
2013-07-16 17:07:00,90.7,68.4,-100.00,North,4,0.0,3.0,48,0.00,,,0.00,meteohub,2013-07-16 21:07:00,
2013-07-16 17:12:00,90.9,69.1,-100.00,NNE,24,0.0,2.0,49,0.00,,,0.00,meteohub,2013-07-16 21:12:00,
2013-07-16 17:17:00,91.2,70.0,-100.00,NNW,335,0.0,2.0,50,0.00,,,0.00,meteohub,2013-07-16 21:17:00,
2013-07-16 17:22:00,91.2,68.7,-100.00,NE,41,0.0,2.0,48,0.00,,,0.00,meteohub,2013-07-16 21:22:00,
2013-07-16 17:27:00,91.2,69.4,-100.00,East,82,2.0,3.0,49,0.00,,,0.00,meteohub,2013-07-16 21:27:00,
2013-07-16 17:33:00,90.9,69.6,-100.00,East,86,0.0,3.0,50,0.00,,,0.00,meteohub,2013-07-16 21:33:00,
2013-07-16 17:38:00,90.9,69.6,-100.00,ENE,75,2.0,3.0,50,0.00,,,0.00,meteohub,2013-07-16 21:38:00,
2013-07-16 17:43:00,90.9,68.5,-100.00,ENE,68,1.0,2.0,48,0.00,,,0.00,meteohub,2013-07-16 21:43:00,
2013-07-16 17:48:00,91.0,68.5,-100.00,ENE,73,0.0,2.0,48,0.00,,,0.00,meteohub,2013-07-16 21:48:00,
2013-07-16 17:53:00,91.0,70.9,-100.00,ESE,106,0.0,2.0,52,0.00,,,0.00,meteohub,2013-07-16 21:53:00,
2013-07-16 17:58:00,91.6,69.1,-100.00,ESE,103,0.0,2.0,48,0.00,,,0.00,meteohub,2013-07-16 21:58:00,
2013-07-16 18:03:00,91.8,68.0,-100.00,East,89,0.0,2.0,46,0.00,,,0.00,meteohub,2013-07-16 22:03:00,
2013-07-16 18:08:00,91.8,69.8,-100.00,East,89,0.0,1.0,49,0.00,,,0.00,meteohub,2013-07-16 22:08:00,
2013-07-16 18:13:00,92.5,69.3,-100.00,NE,51,0.0,1.0,47,0.00,,,0.00,meteohub,2013-07-16 22:13:00,
2013-07-16 18:18:00,92.7,68.2,-100.00,East,80,0.0,1.0,45,0.00,,,0.00,meteohub,2013-07-16 22:18:00,
2013-07-16 18:23:00,92.8,69.1,-100.00,East,80,1.0,1.0,46,0.00,,,0.00,meteohub,2013-07-16 22:23:00,
2013-07-16 18:28:00,92.8,70.9,-100.00,East,90,0.0,1.0,49,0.00,,,0.00,meteohub,2013-07-16 22:28:00,
2013-07-16 18:33:00,92.5,68.7,-100.00,East,86,0.0,1.0,46,0.00,,,0.00,meteohub,2013-07-16 22:33:00,
2013-07-16 18:38:00,91.8,69.8,-100.00,East,86,0.0,1.0,49,0.00,,,0.00,meteohub,2013-07-16 22:38:00,
2013-07-16 18:43:00,91.8,71.1,-100.00,East,86,0.0,1.0,51,0.00,,,0.00,meteohub,2013-07-16 22:43:00,
2013-07-16 18:48:00,91.9,71.2,-100.00,East,87,0.0,1.0,51,0.00,,,0.00,meteohub,2013-07-16 22:48:00,
2013-07-16 18:53:00,92.1,71.4,-100.00,East,85,0.0,1.0,51,0.00,,,0.00,meteohub,2013-07-16 22:53:00,
2013-07-16 18:58:00,92.1,70.2,-100.00,SE,143,0.0,0.0,49,0.00,,,0.00,meteohub,2013-07-16 22:58:00,
2013-07-16 19:03:00,92.5,70.5,-100.00,SE,143,0.0,1.0,49,0.00,,,0.00,meteohub,2013-07-16 23:03:00,
2013-07-16 19:08:00,92.5,70.0,-100.00,SE,143,0.0,1.0,48,0.00,,,0.00,meteohub,2013-07-16 23:08:00,
2013-07-16 19:13:00,92.5,70.0,-100.00,SE,143,0.0,1.0,48,0.00,,,0.00,meteohub,2013-07-16 23:13:00,
2013-07-16 19:18:00,92.7,70.7,-100.00,SE,143,0.0,1.0,49,0.00,,,0.00,meteohub,2013-07-16 23:18:00,
2013-07-16 19:23:00,92.7,72.0,-100.00,SE,143,0.0,1.0,51,0.00,,,0.00,meteohub,2013-07-16 23:23:00,
2013-07-16 19:28:00,92.5,71.1,-100.00,SE,143,0.0,1.0,50,0.00,,,0.00,meteohub,2013-07-16 23:28:00,
2013-07-16 19:33:00,92.3,72.1,-100.00,SE,143,0.0,0.0,52,0.00,,,0.00,meteohub,2013-07-16 23:33:00,
2013-07-16 19:38:00,91.9,71.8,-100.00,SE,143,0.0,0.0,52,0.00,,,0.00,meteohub,2013-07-16 23:38:00,
2013-07-16 19:43:00,91.8,71.6,-100.00,South,185,0.0,0.0,52,0.00,,,0.00,meteohub,2013-07-16 23:43:00,
2013-07-16 19:49:00,91.9,73.4,-100.00,South,186,0.0,0.0,55,0.00,,,0.00,meteohub,2013-07-16 23:49:00,
2013-07-16 19:54:00,91.9,74.5,-100.00,South,186,0.0,0.0,57,0.00,,,0.00,meteohub,2013-07-16 23:54:00,
2013-07-16 19:59:00,91.4,73.4,-100.00,South,186,0.0,0.0,56,0.00,,,0.00,meteohub,2013-07-16 23:59:00,
2013-07-16 20:04:00,90.0,73.2,-100.00,South,186,0.0,0.0,58,0.00,,,0.00,meteohub,2013-07-17 00:04:00,
2013-07-16 20:09:00,88.9,73.2,-100.00,South,186,0.0,0.0,60,0.00,,,0.00,meteohub,2013-07-17 00:09:00,
2013-07-16 20:14:00,87.6,73.0,-100.00,South,186,0.0,0.0,62,0.00,,,0.00,meteohub,2013-07-17 00:14:00,
2013-07-16 20:19:00,86.9,73.8,-100.00,South,186,0.0,0.0,65,0.00,,,0.00,meteohub,2013-07-17 00:19:00,
2013-07-16 20:24:00,86.4,75.0,-100.00,South,186,0.0,0.0,69,0.00,,,0.00,meteohub,2013-07-17 00:24:00,
2013-07-16 20:29:00,85.6,74.7,-100.00,South,185,0.0,0.0,70,0.00,,,0.00,meteohub,2013-07-17 00:29:00,
2013-07-16 20:34:00,85.3,74.3,-100.00,SSE,153,0.0,0.0,70,0.00,,,0.00,meteohub,2013-07-17 00:34:00,
2013-07-16 20:39:00,85.1,74.7,-100.00,South,176,0.0,0.0,71,0.00,,,0.00,meteohub,2013-07-17 00:39:00,
2013-07-16 20:44:00,84.7,74.3,-100.00,SSE,156,0.0,0.0,71,0.00,,,0.00,meteohub,2013-07-17 00:44:00,
2013-07-16 20:49:00,84.4,74.3,-100.00,SSE,149,0.0,2.0,72,0.00,,,0.00,meteohub,2013-07-17 00:49:00,
2013-07-16 20:54:00,84.0,73.9,-100.00,South,169,0.0,2.0,72,0.00,,,0.00,meteohub,2013-07-17 00:54:00,
2013-07-16 20:59:00,83.8,74.3,-100.00,South,169,0.0,2.0,73,0.00,,,0.00,meteohub,2013-07-17 00:59:00,
2013-07-16 21:04:00,83.3,74.1,-100.00,South,169,0.0,1.0,74,0.00,,,0.00,meteohub,2013-07-17 01:04:00,
2013-07-16 21:09:00,82.9,74.1,-100.00,SW,222,0.0,1.0,75,0.00,,,0.00,meteohub,2013-07-17 01:09:00,
2013-07-16 21:14:00,82.6,73.8,-100.00,SW,222,0.0,0.0,75,0.00,,,0.00,meteohub,2013-07-17 01:14:00,
2013-07-16 21:19:00,82.2,73.6,-100.00,SSW,207,2.0,0.0,75,0.00,,,0.00,meteohub,2013-07-17 01:19:00,
2013-07-16 21:24:00,82.4,73.2,-100.00,SW,221,1.0,0.0,74,0.00,,,0.00,meteohub,2013-07-17 01:24:00,
2013-07-16 21:29:00,82.2,73.0,-100.00,SSE,147,0.0,2.0,74,0.00,,,0.00,meteohub,2013-07-17 01:29:00,
2013-07-16 21:34:00,82.2,73.6,-100.00,SSE,167,0.0,2.0,75,0.00,,,0.00,meteohub,2013-07-17 01:34:00,
2013-07-16 21:39:00,81.9,73.6,-100.00,SE,137,0.0,2.0,76,0.00,,,0.00,meteohub,2013-07-17 01:39:00,
2013-07-16 21:44:00,81.7,73.4,-100.00,SSE,160,0.0,1.0,76,0.00,,,0.00,meteohub,2013-07-17 01:44:00,
2013-07-16 21:49:00,81.3,73.0,-100.00,SSE,150,0.0,1.0,76,0.00,,,0.00,meteohub,2013-07-17 01:49:00,
2013-07-16 21:54:00,81.0,73.0,-100.00,SE,144,2.0,2.0,77,0.00,,,0.00,meteohub,2013-07-17 01:54:00,
2013-07-16 21:59:00,80.8,72.9,-100.00,SE,133,0.0,1.0,77,0.00,,,0.00,meteohub,2013-07-17 01:59:00,
2013-07-16 22:04:00,80.6,72.7,-100.00,South,173,0.0,2.0,77,0.00,,,0.00,meteohub,2013-07-17 02:04:00,
2013-07-16 22:09:00,80.4,72.5,-100.00,South,173,0.0,2.0,77,0.00,,,0.00,meteohub,2013-07-17 02:09:00,
2013-07-16 22:14:00,80.4,72.9,-100.00,SSW,205,0.0,1.0,78,0.00,,,0.00,meteohub,2013-07-17 02:14:00,
2013-07-16 22:19:00,80.2,72.3,-100.00,SSW,201,0.0,1.0,77,0.00,,,0.00,meteohub,2013-07-17 02:19:00,
2013-07-16 22:24:00,80.1,72.5,-100.00,SSW,210,0.0,1.0,78,0.00,,,0.00,meteohub,2013-07-17 02:24:00,
2013-07-16 22:29:00,79.7,72.7,-100.00,SSW,210,0.0,1.0,79,0.00,,,0.00,meteohub,2013-07-17 02:29:00,
2013-07-16 22:34:00,79.3,72.7,-100.00,SSW,210,0.0,1.0,80,0.00,,,0.00,meteohub,2013-07-17 02:34:00,
2013-07-16 22:39:00,79.0,72.7,-100.00,SSW,210,0.0,0.0,81,0.00,,,0.00,meteohub,2013-07-17 02:39:00,
2013-07-16 22:45:00,78.6,72.7,-100.00,South,174,0.0,0.0,82,0.00,,,0.00,meteohub,2013-07-17 02:45:00,
2013-07-16 22:50:00,78.4,72.5,-100.00,South,174,0.0,1.0,82,0.00,,,0.00,meteohub,2013-07-17 02:50:00,
2013-07-16 22:55:00,78.3,72.7,-100.00,South,174,0.0,1.0,83,0.00,,,0.00,meteohub,2013-07-17 02:55:00,
2013-07-16 23:00:00,78.4,72.9,-100.00,SSW,211,0.0,2.0,83,0.00,,,0.00,meteohub,2013-07-17 03:00:00,
2013-07-16 23:05:00,78.8,72.9,-100.00,SW,220,1.0,2.0,82,0.00,,,0.00,meteohub,2013-07-17 03:05:00,
2013-07-16 23:10:00,79.2,73.2,-100.00,SW,236,0.0,2.0,82,0.00,,,0.00,meteohub,2013-07-17 03:10:00,
2013-07-16 23:15:00,79.2,73.2,-100.00,SW,220,1.0,2.0,82,0.00,,,0.00,meteohub,2013-07-17 03:15:00,
2013-07-16 23:20:00,79.2,73.2,-100.00,SSW,205,1.0,2.0,82,0.00,,,0.00,meteohub,2013-07-17 03:20:00,
2013-07-16 23:25:00,79.3,73.4,-100.00,SSE,157,0.0,2.0,82,0.00,,,0.00,meteohub,2013-07-17 03:25:00,
2013-07-16 23:30:00,79.3,73.4,-100.00,SW,214,1.0,2.0,82,0.00,,,0.00,meteohub,2013-07-17 03:30:00,
2013-07-16 23:35:00,79.3,73.0,-100.00,SSW,202,0.0,2.0,81,0.00,,,0.00,meteohub,2013-07-17 03:35:00,
2013-07-16 23:40:00,79.3,73.0,-100.00,SSW,200,0.0,2.0,81,0.00,,,0.00,meteohub,2013-07-17 03:40:00,
2013-07-16 23:45:00,79.3,73.0,-100.00,SSW,200,0.0,2.0,81,0.00,,,0.00,meteohub,2013-07-17 03:45:00,
2013-07-16 23:50:00,79.5,72.9,-100.00,SSW,208,1.0,2.0,80,0.00,,,0.00,meteohub,2013-07-17 03:50:00,
2013-07-16 23:55:00,79.7,72.7,-100.00,SW,220,0.0,2.0,79,0.00,,,0.00,meteohub,2013-07-17 03:55:00,